FOX-1D (AO-92) (43137 NORAD) Tracking and Keplerian Element Data

This shows tracking and keplerian element data for the satellite.

Feedback or suggestion? Click here.




ElementValue
Catalog43137
NameFOX-1D (AO-92)
Epoch Orbit2796
Epoch Day196.15749494
Epoch Year2018
RAAN258.9335
Inclination97.5318
Eccentricity0.0009716
Argument of Perigee12.9522
Mean Anonmoly347.1962
Mean Motion15.22769595
Decay Rate8.06E-06
L11 43137U 18004AC 18196.15749494 .00000806 00000-0 37586-4 0 9996
L22 43137 97.5318 258.9335 0009716 12.9522 347.1962 15.22769595 27969

Live tracking and technical data element details for FOX-1D (AO-92) (NORAD 43137). FOX-1D (AO-92) can be tracked NOW for your location showing map with azimuth and elevation plus other details from your city location.

Track the satellite on the map from your city or location and see movement details for azimuth, elevation, latitude, longitude, range, height, and movement on the map or in text.







IsCatalogInMostPopularTable: catalog: 43137, numindb: 498
Update: records affected: 1



GetName: 43137 FOX-1D (AO-92)

Hit Count: updated at: Sun, 15 Jul 2018 23:15:03 GMT